DW8155 Weather Reports


Display with metric or nautical units.
time (UTC)temp
F
wind
direction
speed
MPH
gust
MPH
rain 1hr
in
rain 24hr
in
rain mn
in
humidity
%
barometer
mb
20260504021523 50 210 4.0 7.0 0.00 0.00 0.00 59 1013.4
20260504020024 50 213 5.0 7.0 0.00 0.00 0.00 59 1013.4
20260504014525 50 211 3.0 6.0 0.00 0.00 0.00 59 1013.3
20260504013021 50 209 3.0 6.0 0.00 0.00 0.00 60 1013.4
20260504011521 50 217 2.0 5.0 0.00 0.00 0.00 62 1013.3
20260504010020 51 214 3.0 6.0 0.00 0.00 0.00 59 1013.4
20260504004528 52 212 4.0 8.0 0.00 0.00 0.00 56 1013.3
20260504003019 53 211 5.0 9.0 0.00 0.00 0.00 56 1013.3
20260504001519 54 214 5.0 11.0 0.00 0.00 0.00 54 1013.5
20260504000018 55 238 6.0 13.0 0.00 0.00 0.00 53 1013.5
20260503234517 55 209 7.0 12.0 0.00 0.00 0.00 53 1013.6
20260503233019 55 228 8.0 15.0 0.00 0.00 0.00 51 1013.6
20260503231516 55 220 6.0 10.0 0.00 0.00 0.00 53 1013.6
20260503230015 56 228 7.0 15.0 0.00 0.00 0.00 52 1013.6
20260503224514 57 241 7.0 10.0 0.00 0.00 0.00 52 1013.7
20260503223014 57 246 6.0 13.0 0.00 0.00 0.00 51 1013.7
20260503221514 57 231 5.0 14.0 0.00 0.00 0.00 52 1013.9
20260503220013 57 213 10.0 16.0 0.00 0.00 0.00 49 1013.9
20260503214512 57 240 7.0 22.0 0.00 0.00 0.00 49 1014.0
20260503213017 57 223 9.0 17.0 0.00 0.00 0.00 48 1013.9
20260503211511 59 247 7.0 17.0 0.00 0.00 0.00 47 1013.8
20260503210010 59 194 8.0 14.0 0.00 0.00 0.00 46 1013.7
20260503204508 58 201 7.0 15.0 0.00 0.00 0.00 45 1013.7
20260503203013 59 218 12.0 17.0 0.00 0.00 0.00 44 1013.9
20260503201505 58 208 9.0 19.0 0.00 0.00 0.00 49 1014.2
20260503200002 59 223 7.0 19.0 0.00 0.00 0.00 48 1014.5
20260503194559 58 169 12.0 22.0 0.00 0.00 0.00 49 1014.8
20260503193111 58 246 8.0 14.0 0.00 0.00 0.00 45 1015.0
20260503191606 60 242 7.0 11.0 0.00 0.00 0.00 47 1015.1
20260503190056 57 255 7.0 16.0 0.00 0.00 0.00 49 1015.4
20260503184552 59 255 5.0 22.0 0.00 0.00 0.00 49 1015.6
20260503183107 58 258 6.0 18.0 0.00 0.00 0.00 51 1015.9
20260503181614 57 263 8.0 18.0 0.00 0.00 0.00 49 1016.1
20260503180046 58 235 10.0 15.0 0.00 0.00 0.00 50 1016.2
20260503174544 57 274 6.0 12.0 0.00 0.00 0.00 53 1016.3
20260503173052 57 263 8.0 14.0 0.00 0.00 0.00 49 1016.6
20260503171541 56 252 7.0 11.0 0.00 0.00 0.00 53 1016.8
20260503081525 33 296 0.0 0.0 0.00 0.00 0.00 92 1017.0
20260503071522 34 296 0.0 0.0 0.00 0.00 0.00 90 1016.9
20260503054506 37 313 1.0 2.0 0.00 0.00 0.00 90 1017.1
20260503053009 37 321 0.0 0.0 0.00 0.00 0.00 91 1017.2
20260503051504 37 321 0.0 0.0 0.00 0.00 0.00 91 1017.2
20260503050003 37 321 0.0 0.0 0.00 0.00 0.00 90 1017.3
20260503044502 37 321 0.0 0.0 0.00 0.00 0.00 90 1017.3
20260503043003 36 321 0.0 0.0 0.00 0.00 0.00 91 1017.3
20260503041600 36 321 0.0 0.0 0.00 0.00 0.00 91 1017.4
20260503040058 36 321 0.0 0.0 0.00 0.00 0.00 90 1017.4
20260503034613 36 321 0.0 0.0 0.00 0.00 0.00 89 1017.5
20260503033100 37 321 0.0 0.0 0.00 0.00 0.00 87 1017.5
20260503031559 37 321 0.0 0.0 0.00 0.00 0.00 85 1017.5
20260503030058 37 321 0.0 0.0 0.00 0.00 0.00 85 1017.5
20260503024556 38 321 0.0 0.0 0.00 0.00 0.00 84 1017.7
20260503023100 38 321 0.0 0.0 0.00 0.00 0.00 82 1017.7